Regional Weather Roundup
Issued by NWS Cleveland, OH

Home | Current Version | Previous Version | Text Only | Print | Product List | Glossary On
Versions: 1 2 3 4 5 6 7 8 9 10 11 12 13 14 15 16 17 18 19 20 21 22 23 24 25 26 27 28 29 30 31 32 33 34 35 36 37 38 39 40 41 42 43 44 45 46 47 48 49 50
000
ASUS41 KCLE 241012
RWRCLE
OHIO REGIONAL WEATHER ROUNDUP
NATIONAL WEATHER SERVICE WILMINGTON, OH
600 AM EDT SUN JUL 24 2016

NOTE: "FAIR" INDICATES FEW OR NO CLOUDS BELOW 12,000 FEET WITH NO
SIGNIFICANT WEATHER AND/OR OBSTRUCTIONS TO VISIBILITY.

OHZ001>008-015>018-024>027-034-035-043-044-241100-
   NORTHWEST OHIO

CITY           SKY/WX    TMP DP  RH WIND       PRES   REMARKS
DEFIANCE       FAIR      77  69  76 CALM      29.96F
FINDLAY        FAIR      76  70  82 SE5       29.97F
TOLEDO EXPRESS FAIR      74  72  93 CALM      29.95F
TOLEDO EXEC    FAIR      75  69  81 SE5       29.97F
LIMA           FAIR      74  72  93 CALM      30.00F
$$

OHZ009>014-019>023-028>033-038-089-241100-
   NORTHEAST OHIO

CITY           SKY/WX    TMP DP  RH WIND       PRES   REMARKS
CLE-HOPKINS    FAIR      73  61  65 S3        30.01S
CLE-LAKEFRONT  FAIR      76  61  59 SE6       29.98R
CUY CO. ARPT   NOT AVBL
LORAIN-ELYRIA  FAIR      72  62  71 S8        30.00S
ASHTABULA      FAIR      61  61 100 CALM      30.03R
AKRON-CANTON   MOCLDY    73  60  63 SE5       30.03R
WOOSTER        CLOUDY    67  65  93 CALM      30.03R
MANSFIELD      FAIR      73  67  81 SE3       30.03R
YOUNGSTOWN     FAIR      62  59  90 SE3       30.03R
$$

OHZ042-051>053-060>062-070>072-077>081-241100-
  SOUTHWEST OHIO

CITY           SKY/WX    TMP DP  RH WIND       PRES   REMARKS
CINC-COVINGTON MOCLDY    75  72  90 NW5       30.01R
CINC-LUNKEN    FAIR      73  73 100 CALM      30.00R
HAMILTON       FAIR      73  71  93 NW3       30.01R
DAYTON         MOCLDY    73  71  93 CALM      30.02S
WRIGHT-PAT AFB FAIR      75  75 100 NE1       30.01R
DAYTON GENERAL MOCLDY    76  71  85 N3        30.01R
WILMINGTON     FAIR      74  72  93 CALM      30.01R FOG
$$

OHZ036-037-039>041-045>050-054>059-063>069-073>076-082>088-241100-
  CENTRAL AND SOUTHEAST OHIO

CITY           SKY/WX    TMP DP  RH WIND       PRES   REMARKS
COLUMBUS       MOCLDY    74  72  93 CALM      29.99S
OSU AIRPORT    FAIR      72  71  97 CALM      30.00R
BOLTON FIELD     N/A     72  72 100 CALM      30.01S FOG
RICKENBACK AFB FAIR      72  72  99 CALM      29.99S
NEWARK         FOG       69  68  96 CALM      30.00S VSB 1/2
MARION         FAIR      74  70  87 CALM      30.02R
LANCASTER      FAIR      69  68  96 CALM      30.01S
ZANESVILLE     FAIR      72  69  90 S3        30.01R FOG
NEW PHILLY     FAIR      70  65  84 CALM      30.02S
$$



USA.gov is the U.S. government's official web portal to all federal, state and local government web resources and services.